This is the latest recevied weather packets stored in our database for station/object N0MR. If no packets are shown the sender has not sent any weather packets the latest 10 day(s).
| Time | Temp. | Humidity | Pressure | Rain* | Wind** | Luminosity | Snow |
|---|---|---|---|---|---|---|---|
| 1788252987 | 17.22° C | 77% | 1010.4 hPa | 0 mm | - | - | - |
| 1788252387 | 17.78° C | 79% | 1010.6 hPa | 0 mm | - | - | - |
| 1788251791 | 17.78° C | 79% | 1010.6 hPa | 0 mm | - | - | - |
| 1788251188 | 18.33° C | 78% | 1010.7 hPa | 0 mm | - | - | - |
| 1788250589 | 18.33° C | 78% | 1010.7 hPa | 0 mm | - | - | - |
| 1788246998 | 16.67° C | 87% | 1010.9 hPa | 0 mm | - | - | - |
| 1788246388 | 16.67° C | 87% | 1010.9 hPa | 0 mm | - | - | - |
| 1788245790 | 16.67° C | 88% | 1011 hPa | 0 mm | - | - | - |
| 1788245190 | 16.67° C | 88% | 1011 hPa | 0 mm | - | - | - |
| 1788242189 | 16.67° C | 88% | 1010.8 hPa | 0 mm | - | - | - |
| 1788241589 | 16.67° C | 88% | 1010.8 hPa | 0 mm | - | - | - |
| 1788235590 | 17.22° C | 87% | 1010.7 hPa | 0 mm | - | - | - |
| 1788234989 | 17.22° C | 87% | 1010.7 hPa | 0 mm | - | - | - |
| 1788234390 | 16.67° C | 88% | 1010.7 hPa | 0 mm | - | - | - |
| 1788233789 | 16.67° C | 88% | 1010.7 hPa | 0 mm | - | - | - |
| 1788233190 | 16.67° C | 89% | 1010.7 hPa | 0 mm | - | - | - |
| 1788232589 | 16.67° C | 89% | 1010.7 hPa | 0 mm | - | - | - |
| 1788231990 | 16.11° C | 91% | 1010.7 hPa | 0 mm | - | - | - |
| 1788231391 | 16.11° C | 91% | 1010.7 hPa | 0 mm | - | - | - |
| 1788229591 | 16.11° C | 92% | 1010.6 hPa | 0 mm | - | - | - |
| 1788228990 | 16.11° C | 92% | 1010.6 hPa | 0 mm | - | - | - |
| 1788221731 | 22.78° C | 71% | 1009.5 hPa | 0 mm | - | - | - |
| 1788221130 | 22.78° C | 71% | 1009.5 hPa | 0 mm | - | - | - |
| 1788220539 | 23.89° C | 68% | 1009.6 hPa | 0 mm | - | - | - |
| 1788219931 | 23.89° C | 68% | 1009.6 hPa | 0 mm | - | - | - |
* Rain latest hour (hover to see other rain measurements)
** Current wind speed in m/s (hover to see current wind gust speed)